Wind_Speed
19 19 19 19 19 19 19 19 18 16 16 17 17 14 12 12 14 14 13 12 12 10 11 11 11 11 12 12 12 12 12 12 12 12 12 11 11 12 12 12 12 12 13 14
19 18 17 19 20 20 20 19 18 17 17 18 17 15 13 13 14 15 15 14 13 12 11 12 12 12 13 14 13 13 13 13 12 13 13 12 12 13 13 13 13 13 13 14
17 17 18 19 20 20 19 17 16 16 17 17 18 16 15 15 16 16 16 15 15 14 13 12 12 13 13 13 14 14 14 14 14 14 13 13 13 13 13 13 13 13 13 14
18 18 19 19 19 19 18 17 17 17 18 18 18 18 15 16 16 16 16 16 16 16 15 14 14 14 15 14 15 15 15 15 15 15 14 14 14 14 14 14 14 13 13 15
17 18 19 19 19 19 18 18 19 18 19 20 19 20 16 17 18 18 18 18 17 17 16 16 15 15 15 16 16 16 16 16 16 16 15 15 15 15 15 14 14 14 15 16
18 19 20 19 18 19 19 20 21 21 20 20 19 20 17 17 17 18 19 18 18 18 17 16 15 15 16 17 17 17 17 17 17 16 15 15 15 15 15 15 15 16 16 16
19 19 19 20 20 20 21 21 22 22 21 20 19 21 18 17 17 18 18 19 18 17 17 17 18 17 17 17 17 17 17 17 17 16 16 15 15 15 16 16 16 16 16 16
19 19 19 20 20 20 20 21 21 21 21 21 21 22 20 19 19 19 19 18 17 18 18 18 18 18 17 18 18 18 18 18 18 17 18 17 15 16 17 17 17 17 17 17
19 18 19 19 18 20 21 21 21 21 21 22 22 22 21 21 21 20 19 18 18 19 20 20 20 19 19 18 18 19 19 19 19 18 17 16 16 17 17 18 18 18 17 17
20 21 20 19 19 20 21 20 21 21 22 23 23 22 23 21 18 19 20 19 20 21 21 20 21 20 19 19 19 19 20 20 19 18 18 17 17 18 18 19 19 18 18 17
21 22 21 22 22 21 22 22 23 22 23 24 23 22 20 20 19 18 18 19 20 21 21 20 20 19 20 21 21 21 21 21 20 20 20 19 18 19 19 19 19 19 19 19
22 22 23 23 22 22 24 24 24 24 24 24 25 23 20 20 21 21 20 20 21 21 21 21 21 21 21 22 22 22 22 22 22 22 21 20 19 19 19 19 19 19 19 19
23 24 24 24 24 24 25 26 26 25 25 26 26 23 21 22 22 23 23 23 23 23 23 22 22 22 22 22 23 23 23 23 22 22 21 21 20 20 20 20 20 20 20 21
25 26 26 26 26 26 26 26 27 27 27 28 27 25 23 23 23 24 25 25 24 23 22 22 22 22 22 22 22 22 22 23 23 23 22 22 21 20 20 21 21 21 21 21
26 27 27 27 28 28 28 27 28 29 29 29 28 27 25 25 25 25 25 26 25 24 23 23 23 23 22 22 22 22 22 22 22 22 22 22 21 21 21 22 22 22 22 21
28 28 28 28 28 29 29 28 29 30 30 30 29 27 26 26 25 25 26 25 26 25 25 25 25 24 23 23 23 22 22 22 22 22 21 22 22 22 22 21 21 22 22 21
28 28 28 28 28 29 30 29 29 29 29 28 28 27 26 26 26 26 25 25 26 25 26 26 26 25 24 24 23 23 22 23 22 22 22 22 22 22 22 22 22 22 21 22
28 27 28 29 29 31 29 28 28 29 30 29 28 26 25 26 26 26 25 26 26 25 24 25 26 25 25 25 24 23 23 23 22 22 22 22 22 23 23 23 22 23 23 23
28 27 28 28 29 30 29 27 26 28 29 29 28 26 26 27 27 27 27 27 26 25 25 26 26 26 25 25 25 25 25 24 23 22 21 22 22 23 23 23 23 23 23 23
26 27 28 28 29 29 26 26 26 27 27 27 27 27 28 29 28 27 27 27 27 26 26 26 26 26 26 25 26 26 25 25 24 23 22 22 23 22 22 23 23 23 23 23
27 27 27 28 29 28 25 25 26 27 27 26 27 28 28 29 29 29 28 27 27 27 27 27 27 26 26 26 26 26 26 26 25 25 24 24 23 23 23 23 23 23 23 23
28 28 28 28 28 26 25 25 26 27 26 26 26 27 28 29 29 29 28 28 28 28 27 28 28 27 26 26 26 26 26 26 25 25 24 24 23 23 23 23 23 23 23 23
27 28 28 28 26 24 24 25 26 26 26 26 26 25 26 28 29 29 28 28 29 29 29 29 28 27 26 27 27 26 26 25 25 24 23 23 23 23 24 24 24 23 23 24
27 27 27 28 28 26 25 26 25 25 27 26 26 25 24 25 26 27 28 28 29 30 30 29 28 28 27 27 27 27 26 26 26 25 24 24 25 24 25 24 24 23 23 23
25 26 26 27 27 27 26 26 26 25 25 25 26 25 26 27 27 28 29 29 30 30 30 30 29 29 28 27 27 27 27 27 27 27 27 26 26 25 25 25 24 23 23 22
25 25 25 25 26 27 26 25 25 25 25 25 26 26 26 26 28 29 30 30 31 30 30 29 28 28 28 27 27 27 28 28 28 27 26 26 26 26 25 24 24 23 23 23
Wind_Direction
224 224 222 222 223 227 226 227 229 227 227 233 241 246 249 255 260 265 266 273 282 288 293 290 294 301 304 311 315 316 313 309 308 310 309 309 313 317 320 322 322 323 322 322
224 224 221 219 221 224 222 225 228 228 227 236 240 245 244 245 249 254 257 263 273 280 287 290 298 301 303 300 304 308 309 307 306 304 302 302 305 310 313 316 318 318 320 322
228 223 220 219 221 223 223 223 225 230 230 238 243 239 238 243 247 248 254 262 271 278 282 286 295 299 301 296 302 302 301 301 302 303 298 298 303 305 308 312 312 313 317 320
222 220 219 219 221 226 226 231 235 235 236 236 243 244 239 242 246 248 253 259 267 273 277 284 289 293 295 296 296 297 295 296 296 298 297 295 299 301 302 306 307 309 313 317
218 217 220 223 225 229 231 235 239 238 240 239 242 248 245 247 248 250 255 258 264 268 276 281 285 289 292 294 295 295 292 294 292 292 293 293 296 297 298 302 307 309 312 314
218 218 222 225 227 231 234 235 237 238 239 240 240 247 247 244 248 250 253 260 267 268 272 278 284 291 291 293 296 295 294 294 291 290 292 294 293 295 297 300 304 307 310 313
219 221 222 224 227 228 232 234 237 238 239 241 240 246 244 244 247 250 256 262 267 271 270 279 287 289 289 291 295 295 293 293 294 293 293 293 292 293 295 297 300 304 309 313
224 223 223 225 228 233 235 237 239 240 242 242 241 245 246 245 246 250 255 260 268 272 273 276 282 287 288 289 291 292 292 291 290 290 288 288 289 290 291 295 299 301 305 307
228 226 222 223 226 233 235 238 241 245 246 248 245 248 248 248 248 254 257 259 266 270 274 276 280 285 284 287 289 290 290 288 290 289 287 290 290 290 292 296 298 299 301 303
234 230 223 221 227 233 236 238 240 244 248 251 251 251 253 255 258 262 261 263 268 268 271 277 280 283 283 287 288 288 289 288 288 289 288 288 287 288 290 293 294 297 300 301
237 235 227 225 228 232 235 237 240 244 249 253 255 256 260 259 261 265 264 268 270 268 270 273 275 276 281 283 284 285 286 287 287 287 287 284 287 286 289 290 291 294 298 299
237 236 233 230 231 234 237 238 241 245 250 256 259 259 260 261 260 263 265 268 269 269 273 279 280 277 278 280 281 283 284 284 286 287 287 286 287 286 287 287 290 293 295 297
237 237 236 234 234 234 236 239 242 246 251 255 257 259 260 259 260 263 267 270 272 276 278 281 280 276 277 279 279 281 282 284 284 284 286 287 285 284 284 285 288 291 293 295
237 238 239 239 240 239 240 241 243 246 251 252 254 257 256 257 261 266 270 271 275 277 277 276 276 276 276 279 280 282 284 286 285 283 282 285 285 281 281 282 284 287 290 291
236 240 241 242 242 241 242 243 245 247 251 254 257 259 258 258 262 267 270 271 274 277 278 277 277 281 281 281 283 282 284 286 286 283 282 284 285 283 282 281 283 284 286 288
239 240 241 242 243 244 244 245 246 247 250 254 258 261 260 261 262 266 269 272 275 277 278 281 282 282 283 283 282 280 283 284 285 282 282 283 284 282 284 283 283 283 284 286
238 241 243 243 244 246 246 246 246 247 248 251 256 261 259 263 264 265 269 273 276 276 277 279 282 283 283 282 280 279 281 283 284 284 282 283 284 283 284 285 283 284 283 284
241 243 245 245 245 246 247 247 247 248 250 251 254 258 257 261 264 264 267 271 273 274 275 276 278 281 281 280 279 279 281 282 283 283 282 283 283 283 283 283 283 284 286 285
241 243 247 249 249 250 249 246 247 247 248 250 254 254 255 257 260 263 266 270 272 273 273 273 276 278 279 278 279 280 281 282 283 282 282 283 284 283 282 281 283 283 285 284
241 243 246 249 251 253 251 248 250 249 248 251 252 254 257 259 261 263 267 271 273 274 274 274 275 276 277 278 279 280 281 282 282 282 282 284 285 283 283 282 283 284 285 286
242 244 246 248 251 252 253 250 248 251 253 253 252 254 257 260 263 265 266 268 272 274 275 275 275 274 273 275 277 280 281 282 281 280 281 282 283 283 283 284 284 284 286 286
243 246 248 250 251 250 251 252 252 253 253 251 253 256 256 258 261 264 267 270 273 275 276 276 276 275 273 274 276 278 279 279 280 280 280 281 283 283 282 283 283 283 285 284
246 248 249 251 252 252 253 254 254 253 252 254 254 255 257 258 260 262 266 270 273 274 274 274 274 273 272 273 275 275 276 275 277 280 279 280 283 283 282 281 281 281 282 282
246 249 251 252 251 253 253 253 253 255 255 256 257 258 258 259 259 262 266 270 272 272 273 272 271 270 271 272 273 273 274 273 275 277 279 280 282 281 280 279 280 280 281 281
249 249 251 252 253 254 253 254 254 254 254 258 260 262 262 262 264 264 265 269 273 275 275 273 270 269 270 270 270 270 270 272 275 277 279 280 280 280 279 279 278 278 280 279
248 251 252 253 254 254 254 252 253 254 256 259 262 264 265 266 267 267 268 271 273 272 273 273 271 270 270 269 269 269 268 270 273 275 278 280 281 281 280 280 278 277 278 278
Height
5862 5866 5868 5871 5873 5875 5876 5877 5879 5880 5881 5882 5883 5885 5886 5887 5887 5888 5889 5889 5889 5890 5890 5889 5889 5888 5887 5886 5885 5884 5883 5881 5880 5878 5877 5876 5874 5873 5871 5869 5868 5866 5864 5862
5860 5862 5865 5866 5869 5870 5872 5873 5874 5876 5877 5878 5879 5881 5883 5883 5884 5884 5885 5886 5886 5887 5887 5887 5886 5886 5884 5883 5883 5881 5880 5879 5877 5876 5875 5873 5872 5870 5869 5867 5866 5864 5862 5860
5856 5860 5861 5862 5864 5866 5868 5870 5871 5873 5874 5875 5876 5878 5879 5880 5880 5880 5882 5882 5883 5884 5884 5884 5884 5883 5882 5880 5879 5878 5877 5876 5875 5874 5872 5871 5870 5868 5866 5865 5863 5861 5859 5857
5852 5855 5856 5858 5860 5862 5864 5867 5868 5869 5869 5871 5873 5874 5876 5877 5877 5877 5878 5878 5879 5880 5880 5880 5880 5880 5879 5877 5876 5875 5874 5873 5872 5870 5869 5868 5867 5865 5864 5862 5861 5859 5857 5855
5848 5850 5852 5854 5857 5859 5861 5863 5864 5865 5865 5867 5869 5870 5873 5873 5873 5874 5874 5874 5875 5876 5876 5876 5876 5875 5875 5874 5873 5872 5871 5869 5868 5866 5865 5864 5863 5862 5861 5859 5858 5856 5854 5852
5845 5846 5848 5851 5853 5855 5857 5858 5859 5860 5861 5863 5865 5865 5867 5868 5869 5869 5870 5871 5871 5871 5871 5870 5871 5871 5871 5870 5869 5868 5867 5865 5863 5862 5861 5860 5859 5858 5857 5856 5854 5852 5850 5848
5840 5842 5844 5846 5848 5850 5852 5854 5855 5856 5857 5858 5860 5860 5862 5863 5864 5865 5866 5867 5867 5867 5867 5867 5867 5867 5867 5867 5865 5864 5862 5861 5860 5858 5857 5856 5855 5854 5854 5852 5851 5849 5846 5844
5836 5838 5840 5842 5844 5845 5847 5849 5851 5852 5853 5854 5855 5855 5858 5859 5859 5860 5861 5862 5863 5863 5863 5863 5863 5863 5863 5862 5861 5859 5858 5857 5855 5854 5852 5851 5851 5850 5849 5848 5846 5845 5843 5841
5831 5835 5837 5838 5840 5842 5842 5844 5846 5847 5848 5849 5850 5852 5853 5854 5854 5855 5856 5857 5858 5859 5859 5858 5858 5858 5858 5857 5856 5855 5854 5853 5851 5850 5848 5847 5846 5846 5845 5843 5842 5840 5839 5837
5827 5830 5832 5834 5835 5836 5838 5840 5841 5841 5842 5843 5845 5846 5848 5848 5849 5850 5851 5851 5853 5854 5854 5854 5854 5853 5853 5852 5851 5850 5849 5848 5847 5846 5844 5843 5842 5841 5840 5839 5838 5836 5834 5833
5821 5824 5827 5829 5830 5831 5833 5835 5835 5837 5837 5838 5839 5843 5844 5844 5845 5846 5847 5847 5847 5848 5848 5848 5848 5848 5848 5847 5846 5845 5844 5843 5842 5841 5838 5837 5837 5836 5835 5834 5833 5832 5830 5828
5816 5818 5820 5823 5825 5826 5828 5829 5830 5832 5832 5833 5834 5839 5838 5838 5839 5840 5842 5842 5842 5842 5842 5842 5842 5842 5841 5841 5840 5840 5839 5838 5837 5836 5834 5832 5832 5831 5830 5829 5828 5827 5825 5823
5810 5812 5814 5817 5820 5821 5821 5823 5824 5826 5827 5828 5829 5833 5832 5833 5834 5834 5835 5836 5836 5836 5836 5836 5836 5836 5836 5835 5835 5834 5833 5832 5831 5830 5829 5828 5826 5825 5824 5823 5822 5821 5819 5818
5805 5806 5809 5811 5813 5814 5816 5817 5819 5820 5821 5822 5823 5825 5826 5827 5828 5829 5829 5830 5830 5830 5829 5830 5830 5830 5830 5829 5828 5827 5826 5826 5825 5824 5823 5822 5820 5819 5818 5817 5816 5815 5814 5812
5798 5800 5801 5804 5806 5807 5809 5811 5812 5814 5814 5816 5817 5818 5820 5821 5822 5822 5823 5823 5824 5823 5823 5823 5823 5823 5823 5822 5821 5821 5820 5819 5818 5817 5816 5815 5814 5812 5811 5811 5810 5809 5808 5806
5790 5792 5795 5797 5799 5800 5802 5804 5806 5807 5808 5809 5811 5812 5814 5814 5814 5815 5816 5816 5817 5817 5816 5816 5816 5816 5816 5815 5815 5814 5813 5812 5811 5810 5809 5808 5807 5806 5805 5804 5803 5802 5801 5800
5783 5785 5788 5790 5792 5793 5795 5797 5799 5800 5801 5803 5804 5807 5807 5807 5808 5808 5809 5810 5810 5810 5810 5810 5809 5809 5809 5808 5807 5807 5806 5805 5804 5803 5802 5801 5801 5800 5799 5798 5797 5796 5795 5793
5777 5778 5780 5782 5785 5785 5790 5790 5791 5793 5794 5796 5797 5799 5799 5800 5800 5801 5802 5803 5803 5803 5803 5803 5802 5802 5802 5801 5800 5800 5799 5798 5797 5796 5796 5795 5794 5793 5792 5791 5790 5789 5788 5787
5769 5771 5773 5774 5775 5777 5780 5782 5784 5785 5787 5789 5790 5791 5792 5793 5794 5795 5795 5795 5796 5796 5795 5795 5795 5795 5794 5794 5793 5793 5792 5791 5790 5789 5789 5788 5787 5786 5785 5784 5783 5782 5781 5780
5762 5764 5766 5767 5767 5769 5773 5776 5776 5778 5779 5781 5783 5784 5785 5785 5787 5788 5788 5788 5789 5789 5788 5788 5788 5787 5787 5786 5786 5785 5784 5784 5783 5782 5781 5780 5779 5778 5778 5777 5776 5775 5774 5773
5756 5757 5759 5760 5760 5762 5766 5768 5769 5770 5772 5774 5774 5776 5777 5778 5779 5780 5781 5781 5782 5781 5781 5780 5780 5779 5779 5779 5778 5778 5777 5776 5776 5775 5774 5773 5772 5771 5770 5770 5769 5768 5767 5766
5748 5750 5752 5753 5754 5758 5759 5760 5762 5763 5765 5766 5767 5768 5769 5770 5771 5772 5772 5773 5774 5774 5773 5773 5772 5772 5771 5771 5770 5770 5769 5769 5768 5768 5767 5766 5765 5764 5763 5762 5762 5761 5760 5759
5741 5743 5745 5747 5750 5751 5752 5753 5754 5755 5757 5758 5759 5760 5761 5762 5763 5764 5765 5765 5766 5765 5765 5764 5763 5763 5763 5763 5762 5762 5762 5761 5760 5760 5759 5759 5758 5757 5756 5755 5755 5754 5753 5752
5734 5736 5737 5739 5741 5743 5744 5745 5747 5748 5750 5751 5752 5752 5753 5754 5755 5756 5757 5757 5757 5757 5757 5756 5755 5754 5754 5754 5754 5754 5754 5753 5753 5753 5752 5752 5751 5750 5749 5748 5747 5746 5745 5744
5728 5728 5730 5732 5734 5735 5737 5738 5739 5740 5742 5743 5745 5745 5746 5747 5747 5747 5748 5749 5749 5748 5747 5746 5746 5745 5745 5745 5745 5745 5745 5745 5745 5745 5744 5743 5742 5742 5741 5740 5739 5739 5738 5737
5720 5722 5723 5725 5727 5728 5730 5731 5732 5734 5735 5736 5738 5738 5739 5739 5739 5739 5739 5740 5739 5739 5739 5738 5737 5736 5736 5736 5737 5737 5737 5737 5737 5737 5737 5736 5735 5734 5733 5732 5731 5730 5730 5730